• Processing (Info)

  • MPEC 2013-T50 : 2013 TZ5

    The following Minor Planet Electronic Circular may be linked-to from your own Web pages, but must not otherwise be redistributed electronically.

    A form allowing access to any MPEC is at the bottom of this page.


    Read MPEC 2013-T49 Read MPEC 2013-T51


    M.P.E.C. 2013-T50                                Issued 2013 Oct. 6, 22:22 UT
    
         The Minor Planet Electronic Circulars contain information on unusual
             minor planets and routine data on comets.  They are published
       on behalf of Commission 20 of the International Astronomical Union by the
              Minor Planet Center, Smithsonian Astrophysical Observatory,
                              Cambridge, MA 02138, U.S.A.
    
                 Prepared using the Tamkin Foundation Computer Network
    
                                  MPC@CFA.HARVARD.EDU
                URL https://www.minorplanetcenter.net/    ISSN 1523-6714
    
                                       2013 TZ5
    
    Observations:
         K13T05Z* C2013 10 04.25391 01 08 23.02 +23 03 04.6          20.9 VqET050703
         K13T05Z  C2013 10 04.26173 01 08 25.49 +23 02 38.5          20.2 VqET050703
         K13T05Z  C2013 10 04.26956 01 08 27.83 +23 02 12.2          20.5 VqET050703
         K13T05Z  C2013 10 04.27736 01 08 30.09 +23 01 44.5          20.5 VqET050703
         K13T05Z  C2013 10 04.39390 01 09 04.61 +22 54 58.6          20.1 VqET050703
         K13T05Z  C2013 10 04.39540 01 09 05.12 +22 54 52.8          20.6 VqET050703
         K13T05Z KC2013 10 04.95363 01 12 02.66 +22 22 07.0                qET050595
         K13T05Z KC2013 10 04.96624 01 12 06.44 +22 21 22.7          20.7 VqET050595
         K13T05Z KC2013 10 04.98220 01 12 11.19 +22 20 25.9                qET050595
         K13T05Z  C2013 10 05.35743 01 14 06.87 +21 58 37.5          20.0 VqET050G96
         K13T05Z  C2013 10 05.35870 01 14 07.25 +21 58 32.9          20.4 VqET050G96
         K13T05Z  C2013 10 05.35999 01 14 07.62 +21 58 28.6          20.0 VqET050G96
         K13T05Z  C2013 10 05.36126 01 14 07.97 +21 58 23.7          20.2 VqET050G96
         K13T05Z  C2013 10 05.36253 01 14 08.34 +21 58 19.2          19.8 VqET050G96
         K13T05Z  C2013 10 06.23436 01 18 36.48 +21 06 50.5          20.2 RoET050926
         K13T05Z  C2013 10 06.23883 01 18 37.74 +21 06 35.1          20.3 RoET050926
         K13T05Z  C2013 10 06.24334 01 18 39.03 +21 06 19.6          20.3 RoET050926
    
    Observer details:
    595 Farra d'Isonzo.  Observer E. Pettarin.  0.61-m f/4.0 reflector + CCD.
    703 Catalina Sky Survey.  Observer A. R. Gibbs.  Measurers A. Boattini,
        E. J. Christensen, A. R. Gibbs, A. D. Grauer, R. E. Hill, J. A. Johnson,
        R. A. Kowalski, S. M. Larson, F. C. Shelly.  0.68-m Schmidt + CCD.
    926 Tenagra II Observatory.  Observers M. Schwartz, P. R. Holvorcem.  0.81-m
        f/7 Ritchey-Chretien + CCD.
    G96 Mt. Lemmon Survey.  Observer R. E. Hill.  Measurers A. Boattini,
        E. J. Christensen, A. R. Gibbs, A. D. Grauer, R. E. Hill, J. A. Johnson,
        R. A. Kowalski, S. M. Larson, F. C. Shelly.  1.5-m reflector + CCD.
    
    Orbital elements:
    2013 TZ5                                                 Earth MOID = 0.1504 AU
    Epoch 2013 Sept. 25.0 TT = JDT 2456560.5                MPC
    M   0.41765              (2000.0)            P               Q
    n   0.26068697     Peri.  158.12895     +0.99715216     -0.02494759
    a   2.4269258      Node   203.63925     +0.00698044     +0.97018116
    e   0.5301800      Incl.   10.22370     +0.07509220     +0.24109363
    P   3.78           H   23.2           G   0.15
    From 17 observations 2013 Oct. 4-6.  E-assumed.
    
    Ephemeris:
    2013 TZ5                 a,e,i = 2.43, 0.53, 10                  q = 1.1402
    Date    TT    R. A. (2000) Decl.     Delta      r     Elong.  Phase     V
    2013 09 06    22 29 17.9 +36 03 41   0.1953  1.1583   136.9    36.5    21.5
    ...
    2013 09 21    23 49 38.2 +33 16 00   0.1606  1.1406   145.9    29.6    20.8
    ...
    2013 09 29    00 38 41.4 +27 50 34   0.1537  1.1421   154.1    22.5    20.5
    ...
    2013 10 05    01 12 16.6 +22 19 49   0.1556  1.1483   161.0    16.5    20.3
    2013 10 06    01 17 23.8 +21 20 58   0.1565  1.1497   162.1    15.5    20.3
    2013 10 07    01 22 21.8 +20 21 41   0.1576  1.1513   163.2    14.6    20.3
    ...
    2013 10 13    01 48 46.8 +14 30 01   0.1680  1.1630   168.8     9.6    20.3
    ...
    2013 10 21    02 15 15.1 +07 39 40   0.1911  1.1847   171.4     7.2    20.5
    ...
    2013 11 05    02 44 24.8 -00 26 49   0.2585  1.2421   163.9    12.8    21.5
    
    A. U. Tomatic                (C) Copyright 2013 MPC           M.P.E.C. 2013-T50
    

    Read MPEC 2013-T49 Read MPEC 2013-T51


    MPEC number:

    Enter an MPEC number in one of the following forms:

    • 1997-B01 (the full form)
    • J97B01 (the packed version of the full form)
    • B01 (the abbreviated form)